Location: Belfast
(54.5830°N, 5.9330°W)
Time: 09:42:58
(UTC+00:00)

Coronas F rocket - Visible Passes

Search period start: 23 November 2014 00:00
Search period end: 03 December 2014 00:00
Orbit: 389 x 406 km, 82.5° (Epoch: 22 November)

Date Brightness Start Highest point End Pass type
(mag) Time Alt. Az. Time Alt. Az. Time Alt. Az.
25 Nov 4.6 07:29:21 10° SE 07:31:48 21° E 07:34:15 10° NE visible
27 Nov 4.4 07:18:35 10° SE 07:21:11 24° E 07:23:47 10° NE visible
28 Nov 3.6 17:32:28 10° NNE 17:33:25 15° NNE 17:33:25 15° NNE visible
28 Nov 4.4 19:05:24 10° NNW 19:06:05 15° NW 19:06:05 15° NW visible
29 Nov 4.1 07:07:41 10° SSE 07:10:25 27° E 07:13:08 10° NNE visible
29 Nov 1.4 18:13:10 10° N 18:16:17 71° ENE 18:19:22 10° SSE visible
30 Nov 2.8 17:21:31 10° NNE 17:24:03 22° ENE 17:26:33 10° ESE visible
30 Nov 3.8 18:54:38 10° NNW 18:57:20 27° W 19:00:01 10° SSW visible
01 Dec 3.8 06:56:41 10° SSE 06:59:30 31° E 07:02:20 10° NNE visible
01 Dec 1.5 18:02:15 10° N 18:05:22 84° ENE 18:08:28 10° SSE visible
02 Dec 5.3 06:06:55 10° E 06:07:45 11° E 06:08:34 10° ENE visible
02 Dec 1.6 07:37:24 10° SSW 07:40:31 64° WNW 07:43:39 10° N visible
02 Dec 2.7 17:10:27 10° N 17:13:06 25° ENE 17:15:43 10° SE visible
02 Dec 4.1 18:43:44 10° NW 18:46:18 24° W 18:48:52 10° SSW visible
